QPF
0.00 0.00 0.00 0.00 0.00 0.00 0.00 0.00 0.00 0.00 0.00 0.00 0.00 0.00 0.00 0.00 0.00 0.00 0.00 0.01 0.00 0.00 0.00 0.00 0.00 0.00 0.00 0.00 0.00 0.00 0.00 0.00 0.00 0.01 0.01 0.04 0.01 0.00 0.00 0.00 0.00 0.00 0.00
0.00 0.00 0.00 0.00 0.00 0.00 0.00 0.00 0.00 0.00 0.00 0.00 0.00 0.00 0.00 0.00 0.00 0.00 0.00 0.00 0.00 0.03 0.00 0.00 0.00 0.00 0.00 0.00 0.00 0.00 0.00 0.00 0.00 0.00 0.00 0.00 0.00 0.00 0.00 0.00 0.00 0.00 0.00
0.00 0.00 0.00 0.00 0.00 0.00 0.00 0.00 0.00 0.00 0.00 0.00 0.00 0.00 0.00 0.00 0.00 0.00 0.00 0.00 0.04 0.13 0.06 0.00 0.00 0.00 0.00 0.00 0.00 0.00 0.00 0.00 0.00 0.00 0.00 0.00 0.00 0.00 0.00 0.00 0.00 0.00 0.00
0.00 0.00 0.00 0.00 0.00 0.00 0.00 0.00 0.00 0.00 0.00 0.00 0.00 0.00 0.00 0.00 0.00 0.00 0.01 0.00 0.05 0.08 0.11 0.01 0.00 0.00 0.00 0.00 0.00 0.00 0.00 0.00 0.00 0.00 0.00 0.00 0.00 0.00 0.00 0.00 0.00 0.00 0.00
0.00 0.00 0.00 0.00 0.00 0.00 0.00 0.00 0.00 0.00 0.00 0.00 0.00 0.00 0.00 0.00 0.00 0.05 0.08 0.06 0.17 0.18 0.06 0.00 0.00 0.00 0.00 0.00 0.00 0.00 0.00 0.00 0.00 0.00 0.00 0.00 0.00 0.00 0.00 0.00 0.00 0.00 0.00
0.02 0.04 0.02 0.00 0.00 0.00 0.00 0.00 0.01 0.00 0.00 0.00 0.00 0.00 0.00 0.00 0.00 0.10 0.27 0.71 0.73 0.27 0.04 0.00 0.00 0.00 0.00 0.00 0.00 0.00 0.00 0.00 0.00 0.00 0.00 0.00 0.00 0.00 0.00 0.00 0.00 0.00 0.00
0.16 0.21 0.16 0.12 0.07 0.04 0.06 0.05 0.04 0.05 0.07 0.03 0.00 0.00 0.00 0.00 0.04 0.12 0.85 0.86 0.17 0.12 0.06 0.02 0.00 0.00 0.00 0.00 0.00 0.00 0.00 0.00 0.00 0.00 0.00 0.00 0.00 0.00 0.00 0.00 0.00 0.00 0.00
0.35 0.32 0.20 0.16 0.08 0.06 0.07 0.07 0.08 0.09 0.07 0.04 0.08 0.11 0.04 0.03 0.15 0.39 0.53 0.16 0.07 0.08 0.05 0.06 0.01 0.00 0.00 0.00 0.00 0.00 0.00 0.00 0.00 0.00 0.00 0.00 0.00 0.00 0.00 0.00 0.00 0.00 0.00
0.22 0.16 0.14 0.12 0.12 0.17 0.15 0.13 0.14 0.17 0.15 0.16 0.20 0.22 0.24 0.32 0.48 0.37 0.08 0.07 0.07 0.04 0.07 0.07 0.00 0.00 0.00 0.00 0.00 0.00 0.00 0.00 0.00 0.00 0.00 0.00 0.00 0.00 0.00 0.00 0.00 0.00 0.00
0.03 0.02 0.01 0.05 0.07 0.11 0.12 0.08 0.07 0.18 0.29 0.41 0.57 0.74 0.66 0.62 0.60 0.35 0.09 0.10 0.15 0.07 0.05 0.01 0.00 0.00 0.00 0.00 0.00 0.00 0.00 0.00 0.00 0.00 0.00 0.00 0.00 0.00 0.00 0.00 0.00 0.00 0.00
0.00 0.00 0.00 0.00 0.00 0.00 0.00 0.01 0.02 0.29 0.56 0.78 0.83 1.12 0.85 0.29 0.15 0.15 0.27 0.17 0.19 0.15 0.01 0.00 0.00 0.00 0.00 0.00 0.00 0.00 0.00 0.00 0.00 0.00 0.00 0.00 0.00 0.00 0.00 0.00 0.00 0.00 0.00
0.00 0.00 0.00 0.00 0.00 0.00 0.00 0.00 0.08 0.27 0.52 0.40 0.47 0.49 0.17 0.09 0.14 0.16 0.11 0.07 0.05 0.04 0.01 0.00 0.00 0.00 0.00 0.00 0.00 0.00 0.00 0.00 0.00 0.00 0.00 0.00 0.00 0.00 0.00 0.00 0.00 0.00 0.00
0.00 0.00 0.00 0.00 0.00 0.00 0.00 0.02 0.09 0.10 0.17 0.17 0.08 0.08 0.09 0.13 0.14 0.19 0.10 0.04 0.06 0.03 0.00 0.00 0.01 0.00 0.00 0.00 0.00 0.00 0.00 0.00 0.00 0.00 0.00 0.00 0.00 0.00 0.00 0.00 0.00 0.00 0.00
0.02 0.02 0.01 0.01 0.01 0.01 0.02 0.04 0.04 0.05 0.09 0.09 0.07 0.05 0.04 0.06 0.07 0.06 0.05 0.04 0.03 0.00 0.00 0.00 0.02 0.01 0.00 0.00 0.00 0.00 0.00 0.00 0.00 0.00 0.00 0.00 0.00 0.00 0.00 0.00 0.00 0.00 0.00
0.05 0.04 0.05 0.04 0.06 0.06 0.13 0.13 0.06 0.01 0.01 0.01 0.02 0.02 0.02 0.01 0.01 0.02 0.01 0.01 0.01 0.01 0.02 0.02 0.01 0.02 0.00 0.00 0.00 0.00 0.00 0.00 0.00 0.00 0.00 0.00 0.00 0.00 0.00 0.00 0.00 0.00 0.00
0.01 0.02 0.02 0.03 0.13 0.21 0.15 0.12 0.07 0.01 0.00 0.00 0.00 0.00 0.00 0.00 0.00 0.01 0.00 0.01 0.02 0.03 0.03 0.01 0.01 0.01 0.01 0.00 0.00 0.00 0.00 0.00 0.00 0.00 0.00 0.00 0.00 0.00 0.00 0.00 0.00 0.00 0.00
0.04 0.03 0.03 0.02 0.15 0.39 0.24 0.21 0.12 0.04 0.04 0.01 0.00 0.00 0.00 0.00 0.00 0.00 0.00 0.01 0.02 0.02 0.01 0.02 0.01 0.01 0.02 0.01 0.01 0.01 0.01 0.01 0.00 0.00 0.00 0.00 0.00 0.00 0.00 0.00 0.00 0.00 0.00
0.11 0.11 0.11 0.10 0.12 0.34 0.48 0.41 0.53 0.16 0.14 0.08 0.02 0.01 0.00 0.00 0.00 0.00 0.00 0.00 0.01 0.01 0.01 0.01 0.01 0.01 0.02 0.03 0.03 0.02 0.01 0.00 0.00 0.00 0.00 0.00 0.00 0.00 0.00 0.00 0.00 0.00 0.00
0.12 0.25 0.44 0.30 0.14 0.13 0.12 0.02 0.06 0.18 0.32 0.17 0.05 0.04 0.03 0.02 0.01 0.00 0.00 0.00 0.00 0.00 0.00 0.00 0.00 0.00 0.00 0.01 0.01 0.00 0.00 0.00 0.00 0.00 0.00 0.00 0.00 0.00 0.00 0.00 0.00 0.00 0.00
0.22 0.54 0.36 0.16 0.10 0.09 0.08 0.12 0.22 0.14 0.28 0.22 0.09 0.06 0.06 0.04 0.02 0.00 0.00 0.00 0.00 0.00 0.00 0.00 0.00 0.00 0.01 0.00 0.00 0.00 0.00 0.01 0.02 0.01 0.00 0.00 0.00 0.00 0.00 0.00 0.00 0.00 0.00
0.20 0.31 0.31 0.17 0.12 0.11 0.03 0.10 0.31 0.27 0.23 0.17 0.10 0.11 0.07 0.02 0.00 0.00 0.00 0.00 0.00 0.00 0.00 0.00 0.00 0.00 0.00 0.00 0.00 0.00 0.01 0.03 0.02 0.01 0.00 0.00 0.00 0.00 0.00 0.00 0.00 0.00 0.00
0.08 0.12 0.16 0.14 0.33 0.18 0.09 0.09 0.14 0.15 0.08 0.06 0.06 0.06 0.03 0.01 0.00 0.00 0.00 0.00 0.00 0.00 0.00 0.00 0.00 0.00 0.01 0.02 0.01 0.00 0.02 0.04 0.01 0.00 0.00 0.00 0.00 0.00 0.00 0.00 0.00 0.00 0.00
0.00 0.03 0.05 0.13 0.16 0.09 0.07 0.04 0.06 0.20 0.19 0.14 0.07 0.02 0.02 0.01 0.01 0.00 0.00 0.00 0.00 0.00 0.00 0.01 0.01 0.01 0.01 0.01 0.00 0.02 0.03 0.02 0.00 0.00 0.00 0.00 0.00 0.00 0.00 0.00 0.00 0.00 0.00
0.05 0.10 0.06 0.11 0.25 0.10 0.00 0.01 0.02 0.09 0.07 0.01 0.01 0.01 0.00 0.04 0.01 0.00 0.00 0.00 0.00 0.00 0.00 0.00 0.02 0.02 0.01 0.00 0.00 0.00 0.00 0.00 0.00 0.00 0.00 0.00 0.00 0.00 0.00 0.00 0.00 0.00 0.00
0.02 0.09 0.25 0.30 0.33 0.18 0.10 0.03 0.02 0.01 0.01 0.02 0.02 0.01 0.00 0.01 0.00 0.00 0.00 0.00 0.00 0.00 0.00 0.00 0.00 0.00 0.00 0.01 0.02 0.00 0.00 0.00 0.00 0.00 0.00 0.00 0.00 0.00 0.00 0.00 0.00 0.00 0.00
0.00 0.01 0.05 0.13 0.19 0.10 0.17 0.04 0.01 0.00 0.01 0.02 0.00 0.00 0.00 0.04 0.01 0.00 0.00 0.00 0.00 0.00 0.00 0.00 0.00 0.00 0.00 0.00 0.00 0.00 0.00 0.00 0.00 0.00 0.00 0.00 0.00 0.00 0.00 0.00 0.00 0.00 0.00
MSLP
1012.12 1012.56 1013.29 1013.88 1014.37 1014.78 1014.95 1014.90 1014.87 1015.08 1015.49 1015.55 1015.72 1015.90 1015.96 1016.05 1016.16 1016.31 1016.58 1017.01 1017.26 1017.74 1017.79 1018.06 1018.44 1018.61 1018.80 1018.58 1018.77 1018.84 1019.33 1019.79 1020.31 1020.62 1020.43 1020.80 1021.16 1021.22 1021.60 1021.97 1021.89 1022.32 1022.56
1011.36 1012.05 1012.73 1013.31 1013.90 1014.47 1014.72 1014.81 1014.93 1014.95 1015.12 1015.37 1015.39 1015.55 1015.82 1016.00 1016.15 1016.21 1016.49 1016.59 1017.06 1017.66 1017.63 1017.77 1017.94 1018.09 1018.56 1018.85 1018.74 1018.89 1019.07 1019.46 1019.98 1020.53 1021.00 1021.32 1021.39 1021.27 1021.40 1021.74 1021.90 1021.87 1022.24
1010.66 1011.37 1012.13 1012.82 1013.32 1013.69 1014.02 1014.32 1014.67 1014.73 1014.77 1014.95 1015.16 1015.24 1015.31 1015.38 1015.73 1015.99 1016.16 1016.29 1016.65 1017.05 1017.01 1017.25 1017.68 1018.09 1018.41 1018.60 1018.83 1018.99 1019.26 1019.47 1020.03 1020.65 1021.21 1021.31 1021.25 1021.28 1021.60 1021.59 1021.82 1022.14 1022.14
1010.10 1010.75 1011.38 1012.01 1012.50 1012.99 1013.39 1013.80 1013.97 1014.16 1014.38 1014.60 1014.73 1014.89 1014.99 1015.07 1015.29 1015.62 1015.74 1016.14 1016.00 1016.00 1016.88 1017.11 1017.37 1017.75 1018.33 1018.43 1018.68 1019.01 1019.28 1019.85 1020.12 1020.72 1021.13 1021.42 1021.45 1021.33 1021.42 1021.89 1022.09 1021.95 1021.94
1010.41 1010.44 1010.81 1011.18 1011.69 1012.51 1013.23 1013.61 1013.86 1014.05 1014.01 1014.12 1014.32 1014.43 1014.36 1014.31 1014.35 1014.69 1015.03 1015.45 1015.72 1016.12 1016.56 1016.91 1016.94 1017.32 1017.98 1018.37 1018.57 1018.92 1019.31 1019.76 1020.05 1020.49 1020.93 1021.19 1021.40 1021.54 1021.55 1021.73 1022.05 1021.98 1021.72
1011.26 1012.18 1011.77 1011.68 1011.96 1012.08 1012.50 1013.12 1013.30 1013.38 1013.66 1013.74 1013.72 1013.73 1013.89 1013.85 1013.80 1014.00 1014.96 1015.91 1015.98 1017.38 1016.58 1017.16 1016.90 1017.25 1017.81 1018.37 1018.60 1018.57 1018.94 1019.46 1019.81 1020.31 1020.64 1020.78 1021.05 1021.15 1021.31 1021.54 1021.83 1022.13 1022.22
1010.96 1011.53 1012.49 1013.29 1012.54 1012.27 1012.20 1012.35 1012.84 1012.99 1012.71 1012.84 1013.10 1013.35 1013.27 1012.97 1013.14 1012.93 1014.37 1013.92 1016.39 1016.69 1016.72 1016.87 1017.26 1017.24 1017.76 1018.39 1018.69 1018.78 1018.98 1019.19 1019.38 1019.75 1020.15 1020.35 1020.85 1021.00 1021.05 1021.34 1021.50 1021.81 1021.87
1011.54 1009.87 1011.35 1012.50 1013.64 1013.33 1013.13 1012.83 1012.83 1012.52 1012.47 1012.89 1012.74 1012.86 1013.02 1012.64 1013.00 1012.83 1013.92 1014.43 1016.17 1016.21 1016.14 1016.61 1016.92 1017.07 1017.69 1018.30 1018.66 1018.92 1019.09 1019.30 1019.27 1019.73 1019.77 1019.96 1020.30 1020.73 1020.84 1021.05 1021.14 1021.42 1021.59
1011.62 1011.58 1011.64 1012.91 1013.61 1014.58 1014.49 1014.07 1013.46 1013.18 1012.45 1012.12 1012.93 1013.73 1015.06 1015.11 1014.35 1014.03 1013.83 1014.44 1015.05 1015.59 1015.98 1016.55 1016.62 1017.00 1017.55 1018.05 1018.63 1019.15 1019.20 1019.64 1019.39 1019.35 1019.56 1019.60 1019.92 1020.21 1020.40 1021.06 1021.57 1021.77 1022.09
1011.93 1011.45 1011.56 1012.37 1013.08 1013.42 1013.94 1013.74 1013.54 1013.32 1013.35 1012.72 1012.72 1012.18 1012.35 1015.00 1015.98 1013.56 1014.43 1014.73 1015.14 1015.83 1016.20 1015.93 1016.31 1016.71 1017.24 1017.77 1018.34 1018.94 1019.19 1019.62 1019.94 1019.80 1019.80 1019.75 1019.92 1020.16 1020.05 1020.73 1021.33 1021.66 1021.97
1011.50 1011.58 1011.85 1012.13 1012.45 1012.85 1013.21 1012.96 1012.66 1012.40 1011.95 1011.81 1011.08 1010.57 1010.31 1013.88 1015.44 1015.62 1015.51 1014.41 1014.74 1015.40 1015.42 1015.91 1015.97 1016.41 1016.98 1017.45 1017.89 1018.29 1018.75 1019.15 1019.70 1019.74 1019.83 1019.91 1020.01 1020.49 1020.40 1020.34 1020.69 1021.20 1021.59
1011.56 1011.65 1011.65 1011.71 1012.22 1012.55 1012.42 1012.25 1012.28 1011.81 1011.80 1011.64 1010.71 1009.76 1007.97 1012.51 1014.10 1015.06 1014.86 1014.57 1014.32 1014.88 1015.37 1015.40 1015.82 1016.44 1016.87 1017.40 1017.92 1018.17 1018.49 1018.92 1019.36 1019.71 1020.20 1020.15 1020.14 1020.25 1020.17 1020.06 1020.18 1020.37 1020.63
1011.79 1011.74 1011.57 1011.49 1011.52 1011.74 1011.59 1011.43 1011.31 1010.78 1010.47 1011.20 1011.62 1010.48 1010.84 1011.96 1013.37 1014.71 1014.73 1014.74 1014.80 1015.08 1015.22 1015.62 1015.94 1016.57 1016.89 1017.26 1017.86 1018.11 1018.26 1018.78 1019.09 1019.68 1019.78 1019.72 1019.55 1019.25 1019.11 1019.50 1019.83 1020.02 1020.14
1011.27 1011.30 1011.25 1011.13 1011.02 1010.99 1010.85 1011.19 1011.57 1011.19 1010.74 1010.75 1010.33 1010.52 1011.31 1012.48 1013.49 1014.20 1014.64 1014.69 1015.22 1015.13 1015.66 1015.91 1016.05 1016.31 1016.86 1017.23 1017.52 1017.93 1018.23 1018.38 1018.95 1019.31 1019.32 1018.94 1018.83 1019.03 1019.26 1019.26 1019.70 1020.00 1020.22
1011.28 1011.64 1011.44 1011.47 1011.40 1011.44 1011.39 1011.69 1011.67 1011.58 1011.56 1011.43 1011.39 1011.78 1012.05 1012.66 1012.79 1013.25 1013.90 1014.51 1014.67 1015.00 1015.25 1015.75 1016.17 1016.59 1017.06 1017.35 1017.74 1017.97 1018.08 1018.26 1018.66 1018.77 1019.03 1018.76 1018.57 1018.75 1018.80 1019.03 1019.27 1019.82 1020.32
1011.27 1011.70 1011.84 1011.91 1011.92 1012.09 1012.53 1012.72 1012.33 1012.26 1012.08 1011.93 1012.06 1012.30 1012.61 1012.72 1012.79 1013.29 1013.62 1014.05 1014.21 1014.70 1015.30 1015.73 1016.02 1016.67 1016.91 1017.07 1017.39 1017.89 1017.80 1017.94 1018.15 1018.44 1018.57 1018.68 1018.70 1018.64 1018.84 1018.92 1019.41 1019.73 1020.11
1011.29 1011.97 1013.03 1012.57 1012.08 1011.78 1011.68 1012.35 1012.79 1012.35 1012.61 1012.81 1012.93 1012.55 1012.54 1012.67 1012.73 1012.91 1013.21 1013.71 1014.41 1014.65 1014.64 1015.30 1015.61 1016.28 1016.53 1016.93 1017.03 1017.24 1017.52 1017.60 1017.59 1018.14 1018.23 1018.37 1018.69 1018.71 1018.86 1019.28 1019.69 1019.72 1020.23
1011.34 1011.68 1012.33 1011.89 1011.69 1010.99 1010.65 1011.40 1011.63 1011.58 1012.40 1012.59 1012.55 1012.75 1013.10 1013.24 1013.09 1013.23 1013.54 1014.25 1014.83 1014.71 1014.30 1014.94 1015.32 1015.74 1016.25 1016.44 1016.84 1017.07 1017.18 1017.50 1017.75 1018.15 1018.32 1018.56 1018.72 1019.06 1019.11 1019.51 1019.56 1019.88 1020.19
1011.12 1011.99 1012.57 1012.88 1012.98 1012.18 1011.19 1010.53 1011.08 1011.29 1012.47 1013.21 1014.20 1013.82 1014.62 1014.51 1014.09 1014.09 1014.04 1013.95 1014.24 1014.20 1014.31 1015.06 1015.21 1015.57 1015.74 1016.14 1016.44 1016.83 1017.01 1017.48 1017.55 1017.78 1017.91 1018.21 1018.62 1018.82 1019.04 1019.29 1019.27 1019.65 1019.95
1011.00 1010.75 1011.06 1011.10 1012.40 1011.89 1011.85 1012.26 1012.36 1012.64 1012.23 1012.33 1011.85 1012.35 1013.48 1013.64 1013.84 1014.20 1014.04 1013.74 1014.06 1014.20 1014.59 1015.09 1015.25 1015.36 1015.55 1015.90 1016.25 1016.64 1017.32 1017.39 1017.32 1017.40 1017.87 1018.11 1018.21 1018.53 1018.83 1018.87 1019.34 1019.71 1020.08
1010.68 1011.02 1011.15 1012.23 1011.53 1012.22 1012.06 1011.96 1011.75 1011.43 1010.85 1010.65 1010.46 1010.67 1011.44 1012.64 1013.55 1014.00 1013.79 1013.68 1013.93 1014.06 1014.50 1014.69 1014.88 1015.17 1015.30 1015.65 1016.23 1016.61 1016.93 1017.35 1017.61 1018.03 1017.89 1017.92 1018.29 1018.46 1018.52 1018.81 1019.31 1019.42 1019.84
1010.53 1010.58 1010.98 1010.80 1010.82 1010.75 1010.90 1010.70 1010.80 1010.86 1010.12 1010.52 1010.57 1010.96 1011.43 1012.35 1013.00 1013.14 1013.43 1013.66 1013.72 1013.74 1014.15 1014.36 1014.67 1015.10 1015.32 1015.76 1016.18 1016.39 1016.77 1017.39 1017.65 1017.88 1018.13 1017.91 1018.08 1018.12 1018.54 1018.78 1019.11 1019.42 1019.97
1009.81 1010.55 1010.94 1010.80 1010.76 1010.29 1009.38 1009.96 1010.07 1010.00 1009.97 1009.71 1009.97 1010.49 1011.13 1011.77 1012.12 1012.58 1013.01 1013.15 1013.38 1013.49 1013.90 1014.18 1014.85 1015.14 1015.15 1015.63 1015.90 1015.96 1016.41 1016.96 1017.28 1017.59 1017.73 1017.87 1017.90 1018.27 1018.51 1018.98 1019.39 1019.88 1020.23
1010.32 1010.11 1010.41 1010.50 1009.93 1010.91 1011.18 1010.27 1010.27 1010.15 1009.94 1009.70 1009.99 1010.26 1010.93 1011.37 1011.53 1011.93 1012.59 1013.17 1013.42 1013.42 1013.74 1014.41 1014.88 1015.01 1015.33 1015.81 1015.89 1016.00 1016.35 1016.80 1016.90 1017.06 1016.96 1017.47 1017.89 1018.22 1018.51 1018.91 1019.43 1019.96 1020.36
1009.83 1010.09 1010.77 1010.99 1009.88 1010.23 1010.45 1009.97 1009.60 1009.01 1009.46 1009.35 1009.67 1010.03 1010.38 1010.52 1011.18 1011.94 1012.64 1013.04 1013.19 1013.49 1014.03 1014.46 1014.64 1014.80 1015.29 1015.59 1015.78 1016.22 1016.56 1016.59 1016.59 1016.44 1016.77 1017.25 1017.91 1018.35 1018.64 1018.95 1019.56 1020.01 1020.48
1009.53 1009.74 1010.07 1010.28 1010.26 1010.27 1010.39 1010.03 1009.34 1009.10 1008.75 1009.03 1009.31 1009.75 1010.12 1010.50 1011.08 1011.84 1012.56 1013.00 1013.37 1013.69 1014.09 1014.27 1014.59 1014.96 1015.43 1015.62 1015.98 1016.41 1016.77 1017.17 1016.54 1016.59 1017.02 1017.50 1018.04 1018.37 1018.57 1018.93 1019.45 1020.06 1020.30
Thickness
5833 5830 5824 5819 5817 5815 5815 5818 5820 5820 5817 5818 5816 5814 5814 5812 5812 5810 5805 5800 5797 5790 5786 5780 5774 5769 5763 5761 5755 5750 5743 5739 5733 5731 5731 5726 5723 5723 5720 5716 5714 5709 5705
5836 5831 5826 5822 5818 5814 5814 5815 5816 5816 5817 5815 5815 5813 5810 5808 5808 5807 5802 5800 5794 5787 5785 5781 5774 5770 5760 5752 5750 5746 5741 5736 5731 5726 5722 5717 5716 5716 5713 5710 5710 5705 5702
5838 5832 5827 5822 5819 5817 5816 5815 5813 5813 5814 5815 5814 5813 5811 5809 5806 5803 5800 5798 5793 5789 5789 5784 5775 5767 5759 5751 5745 5741 5736 5735 5731 5723 5716 5715 5713 5714 5709 5706 5705 5702 5699
5842 5837 5830 5825 5821 5819 5818 5816 5815 5815 5813 5813 5813 5812 5811 5809 5805 5801 5798 5791 5795 5794 5784 5779 5774 5765 5755 5749 5745 5739 5733 5730 5730 5722 5716 5711 5707 5707 5706 5698 5694 5697 5696
5841 5838 5833 5832 5830 5821 5813 5812 5811 5809 5810 5811 5808 5808 5810 5811 5810 5805 5799 5796 5791 5786 5782 5777 5773 5766 5757 5748 5744 5740 5732 5727 5724 5720 5714 5709 5703 5698 5696 5695 5689 5688 5689
5822 5818 5823 5824 5822 5822 5818 5809 5809 5810 5805 5805 5806 5808 5808 5810 5808 5804 5794 5783 5763 5766 5774 5767 5767 5761 5754 5746 5740 5741 5735 5724 5720 5715 5711 5709 5704 5700 5696 5692 5686 5681 5675
5815 5820 5812 5805 5810 5814 5817 5815 5810 5809 5814 5811 5808 5805 5805 5810 5807 5808 5791 5770 5773 5769 5767 5762 5758 5758 5750 5742 5736 5734 5732 5726 5721 5716 5709 5707 5700 5698 5695 5690 5685 5678 5675
5800 5829 5817 5807 5795 5796 5798 5803 5804 5806 5807 5805 5808 5805 5803 5806 5800 5804 5789 5781 5765 5771 5770 5761 5756 5753 5747 5739 5732 5728 5724 5719 5717 5710 5709 5704 5698 5692 5687 5682 5679 5675 5671
5802 5804 5806 5791 5789 5784 5781 5785 5791 5795 5803 5807 5800 5793 5775 5773 5779 5783 5787 5781 5775 5770 5763 5756 5753 5747 5741 5735 5727 5720 5717 5710 5710 5707 5703 5700 5694 5689 5686 5677 5668 5664 5657
5792 5798 5800 5791 5785 5783 5778 5780 5784 5788 5787 5792 5789 5796 5790 5760 5757 5762 5776 5773 5767 5758 5752 5755 5750 5744 5737 5733 5724 5715 5709 5704 5698 5697 5695 5693 5688 5684 5682 5673 5665 5657 5650
5789 5791 5789 5785 5782 5777 5774 5776 5781 5785 5788 5784 5792 5796 5789 5768 5748 5753 5758 5769 5763 5752 5752 5744 5743 5739 5732 5728 5722 5715 5708 5703 5694 5691 5687 5685 5683 5676 5675 5673 5665 5656 5645
5775 5779 5780 5779 5772 5769 5770 5770 5773 5777 5778 5772 5784 5790 5810 5772 5759 5755 5758 5757 5757 5750 5744 5740 5736 5731 5727 5720 5713 5709 5704 5699 5690 5684 5678 5677 5674 5670 5669 5668 5664 5659 5652
5760 5762 5768 5770 5770 5767 5768 5768 5766 5774 5777 5771 5764 5774 5776 5772 5756 5744 5743 5742 5741 5739 5738 5732 5727 5718 5717 5712 5705 5700 5697 5691 5685 5677 5674 5673 5671 5672 5672 5667 5661 5654 5648
5756 5757 5762 5763 5763 5762 5765 5763 5756 5759 5762 5764 5768 5765 5761 5755 5745 5738 5736 5736 5729 5731 5725 5721 5719 5716 5709 5705 5699 5692 5688 5686 5679 5673 5672 5672 5672 5666 5661 5660 5652 5647 5641
5746 5743 5748 5750 5750 5751 5749 5742 5743 5741 5746 5750 5754 5751 5746 5742 5745 5743 5738 5732 5729 5724 5721 5714 5711 5704 5700 5696 5689 5683 5681 5678 5672 5670 5666 5666 5665 5662 5660 5656 5648 5641 5632
5737 5734 5736 5738 5738 5734 5728 5725 5725 5724 5728 5734 5738 5740 5738 5738 5738 5732 5729 5725 5725 5716 5710 5707 5701 5694 5691 5689 5683 5676 5676 5674 5671 5666 5662 5659 5657 5656 5651 5648 5640 5634 5626
5732 5724 5713 5720 5725 5727 5726 5718 5713 5717 5717 5718 5719 5725 5730 5728 5728 5728 5725 5719 5709 5707 5707 5701 5695 5689 5685 5683 5679 5676 5671 5670 5668 5661 5658 5655 5650 5647 5644 5637 5629 5626 5618
5727 5723 5716 5718 5722 5728 5731 5727 5725 5727 5717 5717 5716 5718 5714 5714 5715 5714 5710 5706 5701 5700 5704 5695 5689 5685 5680 5678 5673 5670 5668 5664 5659 5653 5651 5648 5643 5638 5635 5627 5622 5616 5611
5731 5720 5711 5705 5707 5716 5725 5733 5729 5728 5711 5702 5696 5704 5695 5696 5700 5700 5702 5703 5700 5700 5695 5686 5682 5678 5676 5672 5669 5665 5663 5656 5654 5650 5649 5643 5636 5632 5627 5621 5618 5612 5607
5731 5727 5727 5722 5709 5716 5720 5717 5710 5708 5711 5704 5714 5714 5705 5704 5703 5699 5697 5699 5695 5692 5685 5678 5674 5673 5671 5668 5664 5660 5654 5651 5652 5648 5642 5637 5632 5627 5622 5618 5612 5606 5603
5731 5722 5719 5710 5717 5712 5719 5721 5710 5698 5709 5716 5722 5724 5716 5706 5699 5693 5695 5696 5690 5687 5680 5675 5672 5667 5665 5662 5657 5653 5650 5646 5640 5635 5635 5632 5627 5622 5616 5612 5607 5607 5604
5727 5730 5728 5728 5724 5721 5718 5723 5720 5716 5719 5717 5720 5716 5711 5706 5702 5697 5692 5688 5685 5684 5677 5671 5665 5661 5659 5656 5652 5650 5644 5637 5633 5629 5626 5627 5622 5619 5612 5610 5608 5605 5601
5731 5726 5722 5724 5722 5724 5729 5727 5725 5724 5722 5725 5721 5715 5711 5705 5702 5695 5690 5688 5682 5678 5671 5668 5659 5657 5658 5653 5648 5645 5641 5635 5630 5625 5624 5621 5618 5614 5611 5608 5605 5600 5596
5725 5727 5721 5718 5724 5712 5707 5717 5716 5717 5718 5722 5716 5713 5706 5701 5699 5696 5690 5682 5677 5675 5669 5661 5655 5656 5652 5645 5642 5638 5635 5631 5627 5626 5625 5621 5616 5612 5611 5608 5602 5597 5592
5727 5722 5711 5710 5716 5718 5719 5717 5720 5724 5718 5715 5715 5712 5705 5706 5700 5692 5683 5678 5675 5670 5663 5656 5655 5653 5648 5643 5638 5634 5631 5630 5627 5626 5624 5620 5614 5611 5608 5605 5599 5595 5589
5728 5724 5717 5712 5714 5714 5713 5712 5718 5720 5720 5716 5712 5706 5700 5699 5696 5689 5680 5675 5670 5664 5658 5654 5651 5647 5642 5639 5635 5631 5628 5625 5625 5623 5619 5615 5612 5609 5607 5604 5599 5592 5588